Starlink 31908

operational
NORAD ID: 59901 Int'l Des: 2024-100 Owner: SPXS Country: US Constellation: starlink
LEOCIRCULAR

Über Starlink 31908

Beschreibung wird geladen...

Live-Position

3D-Globus wird geladen...

Nächste Überflüge

Höhenverlauf

Altitude vs Time

uPlot chart will show altitude changes over time

Zweizeiliger Elementsatz

1 59901U 24100S 25306.48242730 .00003060 00000-0 12071-3 0 9990
2 59901 43.0029 116.7442 0001583 274.2005 85.8665 15.27567418 81773
Epoch: 2. Nov. 2025 • Age: 40 hours

Aktueller Status

Höhe 483.3 km
Geschwindigkeit 7.63 km/s
Subsatellitenpunkt -1.64°S, 168.64°W
Startdatum 28. Mai 2024
Alter 1.4 years
Typ internet

Technische Details

Klassifizierung Payload
Masse 730.00 kg
Trockenmasse 700.00 kg
Gesamtmasse 730.00 kg
Länge 0.30 m
Durchmesser 4.10 m
Spannweite 29.00 m
Form Box + pan
Hersteller SPXS
Bus-Typ Starlink V2M
Phasenstatus In Orbit
Besitzer/Staat SPXS/US

Große Konstellationen

Loading constellations...